RUK8491 EGAE-EGCC

Flight info

Callsign RUK8491
Flight time N/A
Altitude 25000
Route BELZU L10 DUFFY L15 PEPOD Q38 MAKUX
Aircraft B738/M-SDE2E3FGHIRWXY/LB1

Departure

Time N/A
Airport City of Derry Airport (EGAE)

Arrival

Time 2026-05-03 20:32
Airport Manchester Airport (EGCC)
Time Latitude Longitude Altitude Speed Heading
2026-05-03 20:15 53.56303 -3.81192 17902 ft 321 kts 112°
2026-05-03 20:15 53.55445 -3.77736 17618 ft 320 kts 112°
2026-05-03 20:15 53.54587 -3.74292 17347 ft 319 kts 112°
2026-05-03 20:15 53.53730 -3.70861 17083 ft 318 kts 112°
2026-05-03 20:16 53.52874 -3.67442 16783 ft 318 kts 112°
2026-05-03 20:16 53.52014 -3.64013 16436 ft 319 kts 112°
2026-05-03 20:16 53.51153 -3.60583 16085 ft 317 kts 113°
2026-05-03 20:16 53.50297 -3.57182 15748 ft 315 kts 113°
2026-05-03 20:17 53.49556 -3.54238 15453 ft 314 kts 113°
2026-05-03 20:17 53.48709 -3.50879 15117 ft 312 kts 113°
2026-05-03 20:17 53.47865 -3.47535 14792 ft 310 kts 113°
2026-05-03 20:17 53.47036 -3.44253 14468 ft 309 kts 113°
2026-05-03 20:18 53.46198 -3.40943 14138 ft 307 kts 113°
2026-05-03 20:18 53.45364 -3.37651 13810 ft 306 kts 113°
2026-05-03 20:18 53.44521 -3.34329 13446 ft 305 kts 113°
2026-05-03 20:18 53.43701 -3.31105 13090 ft 304 kts 113°
2026-05-03 20:19 53.42876 -3.27861 12748 ft 302 kts 113°
2026-05-03 20:19 53.42055 -3.24635 12422 ft 300 kts 112°
2026-05-03 20:19 53.41237 -3.21434 12092 ft 298 kts 113°
2026-05-03 20:19 53.40423 -3.18252 11771 ft 296 kts 113°
2026-05-03 20:20 53.39748 -3.15015 11429 ft 294 kts 97°
2026-05-03 20:20 53.39922 -3.11648 11129 ft 290 kts 72°
2026-05-03 20:20 53.40743 -3.08735 10855 ft 287 kts 60°
2026-05-03 20:20 53.41410 -3.06819 10656 ft 287 kts 59°
2026-05-03 20:21 53.42448 -3.03902 10335 ft 288 kts 59°
2026-05-03 20:21 53.43471 -3.01023 10018 ft 287 kts 59°
2026-05-03 20:21 53.44489 -2.98139 9706 ft 287 kts 59°
2026-05-03 20:21 53.45483 -2.95289 9361 ft 286 kts 60°
2026-05-03 20:22 53.46170 -2.92172 9014 ft 286 kts 81°
2026-05-03 20:22 53.46155 -2.88871 8733 ft 284 kts 101°
2026-05-03 20:22 53.45592 -2.85727 8519 ft 279 kts 109°
2026-05-03 20:22 53.44937 -2.82705 8355 ft 273 kts 109°
2026-05-03 20:23 53.44281 -2.79763 8263 ft 267 kts 110°
2026-05-03 20:23 53.43631 -2.76865 8217 ft 265 kts 110°
2026-05-03 20:23 53.42976 -2.73975 8143 ft 264 kts 110°
2026-05-03 20:23 53.42209 -2.71222 7973 ft 260 kts 123°
2026-05-03 20:24 53.41087 -2.68842 7695 ft 260 kts 129°
2026-05-03 20:24 53.39917 -2.66556 7450 ft 258 kts 129°
2026-05-03 20:24 53.38724 -2.64288 7147 ft 259 kts 130°
2026-05-03 20:24 53.37540 -2.62041 6933 ft 256 kts 130°
2026-05-03 20:25 53.36347 -2.59823 6657 ft 257 kts 135°
2026-05-03 20:25 53.34874 -2.58200 6507 ft 253 kts 158°
2026-05-03 20:25 53.33173 -2.57668 6399 ft 246 kts 177°
2026-05-03 20:25 53.31490 -2.57639 6310 ft 238 kts 179°
2026-05-03 20:26 53.29849 -2.57667 6191 ft 233 kts 180°
2026-05-03 20:26 53.28232 -2.57703 6021 ft 230 kts 180°
2026-05-03 20:26 53.26653 -2.57740 5909 ft 222 kts 178°
2026-05-03 20:26 53.25208 -2.57227 5729 ft 208 kts 151°
2026-05-03 20:27 53.24142 -2.55748 5504 ft 192 kts 121°
2026-05-03 20:27 53.23719 -2.53783 5346 ft 175 kts 93°
2026-05-03 20:27 53.23652 -2.51755 4858 ft 180 kts 90°
2026-05-03 20:27 53.23635 -2.49502 3933 ft 204 kts 83°
2026-05-03 20:28 53.24004 -2.47225 3388 ft 201 kts 54°
2026-05-03 20:28 53.25126 -2.46138 3222 ft 185 kts
2026-05-03 20:28 53.26348 -2.45959 3039 ft 170 kts 20°
2026-05-03 20:28 53.27197 -2.44700 2689 ft 162 kts 55°
2026-05-03 20:29 53.27858 -2.43207 2425 ft 152 kts 52°
2026-05-03 20:29 53.28469 -2.41892 2245 ft 139 kts 52°
2026-05-03 20:29 53.29053 -2.40647 2031 ft 132 kts 52°
2026-05-03 20:29 53.29610 -2.39470 1848 ft 127 kts 51°
2026-05-03 20:30 53.30155 -2.38328 1688 ft 126 kts 51°
2026-05-03 20:30 53.30705 -2.37181 1512 ft 127 kts 51°
2026-05-03 20:30 53.31259 -2.36027 1342 ft 127 kts 50°
2026-05-03 20:30 53.31821 -2.34866 1169 ft 130 kts 51°
2026-05-03 20:31 53.32385 -2.33694 1008 ft 129 kts 50°
2026-05-03 20:31 53.32970 -2.32546 764 ft 132 kts 44°
2026-05-03 20:31 53.33520 -2.31355 527 ft 125 kts 48°
2026-05-03 20:31 53.34062 -2.30207 412 ft 127 kts 46°
2026-05-03 20:32 53.34638 -2.29060 265 ft 129 kts 45°
2026-05-03 20:32 53.35180 -2.27919 244 ft 118 kts 51°
2026-05-03 20:32 53.35529 -2.27187 260 ft 49 kts 50°
2026-05-03 20:32 53.35693 -2.26854 266 ft 33 kts 50°
2026-05-03 20:33 53.35798 -2.26675 265 ft 11 kts 353°
2026-05-03 20:33 53.35854 -2.26693 263 ft 3 kts 348°
2026-05-03 20:33 53.35890 -2.26703 259 ft 5 kts 352°
2026-05-03 20:33 53.35900 -2.26705 258 ft 0 kts 352°
2026-05-03 20:34 53.35903 -2.26706 258 ft 0 kts 352°
2026-05-03 20:34 53.35909 -2.26709 257 ft 5 kts 343°
2026-05-03 20:34 53.35927 -2.26749 254 ft 8 kts 276°
2026-05-03 20:34 53.35895 -2.26847 253 ft 10 kts 230°
2026-05-03 20:35 53.35874 -2.26890 253 ft 0 kts 233°
2026-05-03 20:36 53.35871 -2.26898 253 ft 4 kts 233°
2026-05-03 20:37 53.35859 -2.26925 253 ft 3 kts 233°
2026-05-03 20:37 53.35836 -2.26978 253 ft 8 kts 237°
2026-05-03 20:37 53.35801 -2.27096 251 ft 15 kts 253°
2026-05-03 20:37 53.35816 -2.27186 247 ft 3 kts 317°
2026-05-03 20:38 53.35839 -2.27205 247 ft 3 kts 341°
2026-05-03 20:38 53.35870 -2.27186 247 ft 6 kts 41°
2026-05-03 20:38 53.35895 -2.27133 247 ft 6 kts 56°
2026-05-03 20:38 53.35906 -2.27110 247 ft 2 kts 51°
2026-05-03 20:39 53.35909 -2.27103 247 ft 0 kts 52°